Terminal Aerodrome Forecast
Issued by NWS Topeka, KS

Home | Current Version | Previous Version | Graphics & Text | Print | Product List | Glossary On
Versions: 1 2 3 4 5 6 7 8 9 10 11 12 13 14 15 16 17
000
FTUS43 KTOP 202200 AAA
TAFTOP
TAF AMD
KTOP 202224Z 2022/2118 36009KT P6SM SCT019 BKN027
     FM210300 36004KT P6SM FEW015 SCT028 BKN035
      TEMPO 2103/2105 BKN028
     FM211100 34005KT P6SM BKN200=

USA.gov is the U.S. government's official web portal to all federal, state and local government web resources and services.